ONEWEB-0183, 48219

Orbit data source: Space-Track

ONEWEB-0183, 48219 is a payload satellite owned by One Web (NAA) (UK) in LEO that was launched on Sun, 25 Apr 2021 UTC via a SOYUZ-2-1B launch vehicle from the Vostochny Cosmodrome (VOSTO). Payload-class satellites include a variety of spacecraft equipped with specific instruments for various scientific and technological missions. These include communications satellites like Starlink; space stations such as the ISS; scientific satellites like the Hubble; Earth observation satellites from companies like Planet Labs, Umbra, and HawkEye 360; GPS; miniature CubeSats for education and research; and military/defense satellites.

Loading next visibility...
Identifier
48219, 2021-031K
Orbit
LEO
Country
Flag of UKUK
Related business
Manufacturer
One Web
Mission
Operational Commercial Communications
Bus & Motor
ARROW, Unknown motor
Mass
148 kg wet, ~140 kg dry
Launch date (UTC)
2021-04-25 (5 years ago)
Launch vehicle
SOYUZ-2-1B
Launch site
Vostochny Cosmodrome (VOSTO)
Object type
Payload
Rocket body
Debris
Shape & HBR
Trap Box + 2 Pan, 6.7 m
Radar Cross Section
3.464 m², Large (>1 m²)

Expand to show TLE details & history
Last TLE update: 1 day ago

TLE from 1 day ago
0 ONEWEB-0183
1 48219U 21031K   25305.37114800  .00000129  00000-0  31368-3 0  9996
2 48219  87.9001 335.1032 0001692  89.8144 270.3180 13.14504543218394
Epoch: 2025-11-01T08:54Z
TLE epoch observation values (Epoch: 2025-11-01T08:54:27.187Z)
Latitude
0.00003°
Longitude
160.58773°
Altitude
1,208.67 km
Speed
7.25 km/s
True Right ascension
22h 20m 24s
True Declination
0° 00' 00"
Sunlit
Object was in daylight at epoch
Visualization orbit readout
Latitude
Unknown
Longitude
Unknown
Altitude
Unknown
Speed
Unknown
Apparent Right ascension
Unknown
Apparent Declination
Unknown
Sunlit
N/A
Visualization observer readout
Local Sidereal Time
09:10:29
Azimuth
Unknown
Elevation
Unknown
Doppler factor
Unknown
Orbital elements
Apogee altitude
1,204.18 km
Perigee altitude
1,201.615 km
Semi-major axis
7,581.034 km
Eccentricity
0.00017
Inclination
87.9001°
RAAN
335.1032°
Arg. of periapsis
89.8144°
True anomaly
270.29861°
Mean anomaly
270.318°
Eccentric anomaly
270.30831°
Mean motion
3.28814 °/min
Orbital period
109.48 mins
BSTAR
0.00031368
Loading maneuver chart data...
Computing Atmospheric mass density...
Loading historical data...
Loading historical data...
Loading historical data...
Loading historical data...
Loading historical data...
Loading historical data...
Loading historical data...

Documentation

Showing up to 5 results
|